| time (UTC) | temp F | wind direction | speed MPH | gust MPH | rain 1hr in | rain 24hr in | rain mn in | humidity % | barometer mb |
| 20260507033050 | 87 | 92 | 1.0 | 5.0 | 0.00 | 0.00 | 0.00 | 81 | 1007.0 |
| 20260507031547 | 88 | 35 | 2.0 | 7.0 | 0.00 | 0.00 | 0.00 | 79 | 1007.0 |
| 20260507030058 | 89 | 87 | 2.0 | 7.0 | 0.00 | 0.00 | 0.00 | 78 | 1007.0 |
| 20260507024550 | 89 | 62 | 2.0 | 7.0 | 0.00 | 0.00 | 0.00 | 78 | 1006.6 |
| 20260507023052 | 90 | 0 | 2.0 | 6.0 | 0.00 | 0.00 | 0.00 | 78 | 1006.6 |
| 20260507021607 | 90 | 107 | 2.0 | 7.0 | 0.00 | 0.00 | 0.00 | 77 | 1006.5 |
| 20260507020053 | 91 | 93 | 2.0 | 6.0 | 0.00 | 0.00 | 0.00 | 77 | 1006.4 |
| 20260507014608 | 91 | 122 | 2.0 | 7.0 | 0.00 | 0.00 | 0.00 | 77 | 1006.0 |
| 20260507013052 | 91 | 98 | 2.0 | 6.0 | 0.00 | 0.00 | 0.00 | 77 | 1005.8 |
| 20260507011547 | 92 | 80 | 2.0 | 4.0 | 0.00 | 0.00 | 0.00 | 75 | 1005.7 |
| 20260507004549 | 93 | 86 | 2.0 | 6.0 | 0.00 | 0.00 | 0.00 | 71 | 1005.4 |
| 20260507003047 | 94 | 204 | 3.0 | 6.0 | 0.00 | 0.00 | 0.00 | 70 | 1005.2 |
| 20260507001551 | 95 | 95 | 2.0 | 6.0 | 0.00 | 0.00 | 0.00 | 69 | 1005.1 |
| 20260507000047 | 96 | 145 | 3.0 | 8.0 | 0.00 | 0.00 | 0.00 | 68 | 1005.1 |
| 20260506234548 | 97 | 109 | 4.0 | 9.0 | 0.00 | 0.00 | 0.00 | 67 | 1005.1 |
| 20260506233054 | 97 | 121 | 3.0 | 9.0 | 0.00 | 0.00 | 0.00 | 67 | 1005.1 |
| 20260506231547 | 97 | 65 | 4.0 | 11.0 | 0.00 | 0.00 | 0.00 | 69 | 1005.0 |
| 20260506224547 | 98 | 84 | 5.0 | 10.0 | 0.00 | 0.00 | 0.00 | 69 | 1004.8 |
| 20260506223052 | 98 | 93 | 4.0 | 10.0 | 0.00 | 0.00 | 0.00 | 69 | 1004.8 |
| 20260506221549 | 99 | 61 | 3.0 | 11.0 | 0.00 | 0.00 | 0.00 | 69 | 1004.8 |
| 20260506220052 | 98 | 127 | 6.0 | 12.0 | 0.00 | 0.00 | 0.00 | 69 | 1004.9 |
| 20260506214551 | 98 | 85 | 4.0 | 14.0 | 0.00 | 0.00 | 0.00 | 70 | 1004.9 |
| 20260506213048 | 99 | 116 | 5.0 | 10.0 | 0.00 | 0.00 | 0.00 | 70 | 1005.0 |
| 20260506211548 | 99 | 100 | 5.0 | 11.0 | 0.00 | 0.00 | 0.00 | 71 | 1005.2 |
| 20260506210050 | 99 | 130 | 5.0 | 11.0 | 0.00 | 0.00 | 0.00 | 71 | 1005.3 |
| 20260506204550 | 98 | 84 | 4.0 | 11.0 | 0.00 | 0.00 | 0.00 | 71 | 1005.5 |
| 20260506203053 | 98 | 51 | 6.0 | 11.0 | 0.00 | 0.00 | 0.00 | 71 | 1005.6 |
| 20260506201607 | 98 | 35 | 2.0 | 10.0 | 0.00 | 0.00 | 0.00 | 70 | 1005.9 |
| 20260506200048 | 98 | 89 | 4.0 | 12.0 | 0.00 | 0.00 | 0.00 | 70 | 1006.3 |
| 20260506194552 | 98 | 327 | 6.0 | 11.0 | 0.00 | 0.00 | 0.00 | 71 | 1006.5 |
| 20260506193053 | 97 | 15 | 4.0 | 11.0 | 0.00 | 0.00 | 0.00 | 70 | 1006.8 |
| 20260506191553 | 97 | 13 | 4.0 | 11.0 | 0.00 | 0.00 | 0.00 | 72 | 1007.1 |
| 20260506190050 | 96 | 24 | 8.0 | 14.0 | 0.00 | 0.00 | 0.00 | 74 | 1007.5 |
| 20260506184554 | 96 | 30 | 6.0 | 12.0 | 0.00 | 0.00 | 0.00 | 73 | 1007.9 |
| 20260506183048 | 96 | 87 | 8.0 | 13.0 | 0.00 | 0.00 | 0.00 | 75 | 1008.1 |
| 20260506181549 | 94 | 32 | 6.0 | 13.0 | 0.00 | 0.00 | 0.00 | 77 | 1008.2 |
| 20260506180049 | 95 | 33 | 4.0 | 12.0 | 0.00 | 0.00 | 0.00 | 76 | 1008.5 |
| 20260506174546 | 94 | 27 | 5.0 | 11.0 | 0.00 | 0.00 | 0.00 | 76 | 1008.7 |
| 20260506173105 | 93 | 63 | 7.0 | 12.0 | 0.00 | 0.00 | 0.00 | 78 | 1008.9 |
| 20260506171556 | 93 | 350 | 4.0 | 9.0 | 0.00 | 0.00 | 0.00 | 79 | 1009.0 |
| 20260506170053 | 93 | 117 | 3.0 | 9.0 | 0.00 | 0.00 | 0.00 | 78 | 1009.1 |
| 20260506164547 | 91 | 65 | 2.0 | 8.0 | 0.00 | 0.00 | 0.00 | 79 | 1009.3 |
| 20260506163103 | 91 | 63 | 3.0 | 9.0 | 0.00 | 0.00 | 0.00 | 80 | 1009.4 |
| 20260506161554 | 90 | 71 | 3.0 | 10.0 | 0.00 | 0.00 | 0.00 | 82 | 1009.4 |
| 20260506160051 | 89 | 140 | 3.0 | 8.0 | 0.00 | 0.00 | 0.00 | 83 | 1009.6 |
| 20260506154600 | 89 | 68 | 3.0 | 7.0 | 0.00 | 0.00 | 0.00 | 83 | 1009.6 |
| 20260506153049 | 88 | 24 | 2.0 | 7.0 | 0.00 | 0.00 | 0.00 | 84 | 1009.7 |
| 20260506151551 | 86 | 113 | 4.0 | 8.0 | 0.00 | 0.00 | 0.00 | 86 | 1009.8 |
| 20260506150048 | 86 | 64 | 2.0 | 8.0 | 0.00 | 0.00 | 0.00 | 86 | 1009.8 |
| 20260506144550 | 86 | 343 | 2.0 | 7.0 | 0.00 | 0.00 | 0.00 | 87 | 1009.7 |
| 20260506143051 | 84 | 88 | 3.0 | 10.0 | 0.00 | 0.00 | 0.00 | 88 | 1009.8 |
| 20260506141553 | 83 | 82 | 4.0 | 8.0 | 0.00 | 0.00 | 0.00 | 90 | 1009.8 |
| 20260506140059 | 82 | 109 | 4.0 | 10.0 | 0.00 | 0.00 | 0.00 | 91 | 1009.8 |
| 20260506134550 | 81 | 92 | 6.0 | 13.0 | 0.00 | 0.00 | 0.00 | 92 | 1009.6 |
| 20260506133059 | 81 | 122 | 4.0 | 11.0 | 0.00 | 0.00 | 0.00 | 92 | 1009.6 |
| 20260506131552 | 80 | 94 | 3.0 | 8.0 | 0.00 | 0.00 | 0.00 | 94 | 1009.6 |
| 20260506130056 | 80 | 99 | 3.0 | 7.0 | 0.00 | 0.00 | 0.00 | 94 | 1009.6 |
| 20260506124558 | 79 | 71 | 2.0 | 9.0 | 0.00 | 0.00 | 0.00 | 95 | 1009.5 |
| 20260506123055 | 79 | 109 | 3.0 | 8.0 | 0.00 | 0.00 | 0.00 | 95 | 1009.4 |
| 20260506121606 | 78 | 34 | 2.0 | 8.0 | 0.00 | 0.00 | 0.00 | 95 | 1009.3 |
| 20260506120107 | 78 | 132 | 3.0 | 9.0 | 0.00 | 0.00 | 0.00 | 95 | 1009.2 |
| 20260506114558 | 78 | 109 | 3.0 | 9.0 | 0.00 | 0.00 | 0.00 | 95 | 1009.1 |
| 20260506113051 | 79 | 5 | 3.0 | 9.0 | 0.00 | 0.00 | 0.00 | 95 | 1009.0 |
| 20260506111553 | 79 | 77 | 3.0 | 6.0 | 0.00 | 0.00 | 0.00 | 95 | 1008.9 |
| 20260506110050 | 79 | 325 | 2.0 | 9.0 | 0.00 | 0.00 | 0.00 | 95 | 1008.7 |
| 20260506104550 | 79 | 74 | 3.0 | 8.0 | 0.00 | 0.00 | 0.00 | 95 | 1008.6 |
| 20260506103052 | 79 | 63 | 3.0 | 7.0 | 0.00 | 0.00 | 0.00 | 94 | 1008.5 |
| 20260506101547 | 80 | 116 | 3.0 | 9.0 | 0.00 | 0.00 | 0.00 | 95 | 1008.5 |
| 20260506100055 | 80 | 90 | 1.0 | 6.0 | 0.00 | 0.00 | 0.00 | 95 | 1008.3 |
| 20260506094552 | 80 | 0 | 2.0 | 6.0 | 0.00 | 0.00 | 0.00 | 94 | 1008.2 |
| 20260506093108 | 80 | 100 | 2.0 | 8.0 | 0.00 | 0.00 | 0.00 | 94 | 1008.1 |
| 20260506091551 | 80 | 240 | 1.0 | 6.0 | 0.00 | 0.00 | 0.00 | 94 | 1008.0 |
| 20260506090101 | 81 | 81 | 2.0 | 6.0 | 0.00 | 0.00 | 0.00 | 94 | 1007.8 |
| 20260506084555 | 81 | 0 | 2.0 | 8.0 | 0.00 | 0.00 | 0.00 | 95 | 1007.8 |
| 20260506083053 | 81 | 93 | 3.0 | 7.0 | 0.00 | 0.00 | 0.00 | 97 | 1007.7 |
| 20260506081554 | 81 | 68 | 2.0 | 8.0 | 0.00 | 0.00 | 0.00 | 98 | 1007.6 |
| 20260506073059 | 82 | 81 | 2.0 | 6.0 | 0.00 | 0.00 | 0.00 | 99 | 1007.8 |
| 20260506071547 | 82 | 248 | 1.0 | 6.0 | 0.00 | 0.00 | 0.00 | 99 | 1007.8 |
| 20260506061559 | 82 | 32 | 2.0 | 7.0 | 0.00 | 0.00 | 0.00 | 97 | 1008.1 |
| 20260506044558 | 84 | 57 | 3.0 | 5.0 | 0.00 | 0.00 | 0.00 | 95 | 1007.9 |
| 20260506043053 | 85 | 96 | 2.0 | 5.0 | 0.00 | 0.00 | 0.00 | 94 | 1008.0 |
| 20260506041603 | 85 | 50 | 2.0 | 6.0 | 0.00 | 0.00 | 0.00 | 94 | 1007.9 |
| 20260506040056 | 85 | 78 | 2.0 | 5.0 | 0.00 | 0.00 | 0.00 | 93 | 1007.9 |
| 20260506034547 | 86 | 51 | 2.0 | 5.0 | 0.00 | 0.00 | 0.00 | 92 | 1007.8 |